Location: Arran
(51.9410°N, 101.7372°W)
Time: 08:20:14
(UTC+00:00)

Tiangong - Visible Passes

Search period start: 04 March 2024 00:00
Search period end: 14 March 2024 00:00
Orbit: 374 x 383 km, 41.5° (Epoch: 03 March)

Date Brightness Start Highest point End Pass type
(mag) Time Alt. Az. Time Alt. Az. Time Alt. Az.
04 Mar 0.5 01:05:55 10° S 01:06:13 10° SSE 01:06:31 10° SSE visible
04 Mar 0.6 02:40:44 10° SSW 02:41:08 11° SSW 02:41:08 11° SSW visible
05 Mar 0.3 01:39:29 10° SSW 01:40:54 12° S 01:42:18 10° SSE visible
06 Mar 0.4 02:14:29 10° SSW 02:15:30 11° S 02:16:10 11° S visible
07 Mar 0.4 01:12:48 10° SSW 01:14:11 12° S 01:15:33 10° SSE visible
